Regional Weather Roundup
Issued by NWS

Home | Current Version | Previous Version | Text Only | Print | Product List | Glossary On
Versions: 1 2 3 4 5 6 7 8 9 10 11 12 13 14 15 16 17 18 19 20 21 22 23 24 25 26 27 28 29 30 31 32 33 34 35 36 37 38 39 40 41 42 43 44 45 46 47 48 49 50
000
ASUS45 KABQ 031210
RWRNM
NEW MEXICO REGIONAL WEATHER ROUNDUP
NATIONAL WEATHER SERVICE ALBUQUERQUE NM
600 AM MDT FRI JUL 03 2015

NOTE: "FAIR" MEANS FEW OR NO CLOUDS BELOW 12,000 FEET AGL WITH NO
       SIGNIFICANT WEATHER OR OBSTRUCTIONS TO VISION.

      THIS PRODUCT IS RELEASED AS TWO VERSIONS.  ONE VERSION NEAR
      THE TOP OF THE HOUR CONTAINING PRELIMINARY DATA FROM ALBUQUERQUE
      AND OTHER STATIONS.  A FINAL VERSION WITH ADDITIONAL DATA IS
      ISSUED ABOUT 10 MINUTES AFTER THE HOUR.

NMZ501-503-504-510>518-031300-
NORTHWEST PLATEAU/NORTHCENTRAL MOUNTAINS

CITY           SKY/WX    TMP DP  RH WIND       PRES   REMARKS
FARMINGTON     CLEAR     63  53  70 E5        30.16R
6HR MIN TEMP:  63; 6HR MAX TEMP:  69;

LOS ALAMOS     PTCLDY    61  51  69 NE3       30.31R
SANTA FE       PTCLDY    58  56  93 N6        30.25R
6HR MIN TEMP:  58; 6HR MAX TEMP:  63;

TAOS           MOCLDY    52  43  71 N9        30.31S
ANGEL FIRE     FOG       49  48  98 CALM      30.41R VSB 1

$$
NMZ402-403-502-505>509-031300-
WESTCENTRAL MOUNTAINS/SOUTHWEST MOUNTAINS

CITY           SKY/WX    TMP DP  RH WIND       PRES   REMARKS
GALLUP         MOCLDY    58  54  86 E5        30.22R
6HR MIN TEMP:  58; 6HR MAX TEMP:  69;

GRANTS         CLOUDY    60  60 100 CALM      30.26S
SILVER CITY      N/A     66  63  88 NW13      30.21R

$$
NMZ407-409-411-412-031300-
SOUTHERN DESERTS

CITY           SKY/WX    TMP DP  RH WIND       PRES   REMARKS
LORDSBURG      LGT RAIN  66  63  88 NW7       30.14R
DEMING         CLOUDY    72  61  68 W8        30.10R
6HR MIN TEMP:  72; 6HR MAX TEMP:  82;

LAS CRUCES     CLOUDY    71  60  68 NE7       30.13R
HOLLOMAN AFB   MOCLDY    70  65  84 NE5       30.08R
ALAMOGORDO     MOCLDY    72  59  64 SE7       30.10F
T OR C         CLOUDY    69  65  86 SE7       30.13R
6HR MIN TEMP:  68; 6HR MAX TEMP:  78; 6HR PCP:  0.08;


$$
NMZ519>523-031300-
CENTRAL VALLEYS/CENTRAL HIGHLANDS

CITY           SKY/WX    TMP DP  RH WIND       PRES   REMARKS
ALBUQUERQUE    CLOUDY    71  54  54 E13       30.17R
6HR MIN TEMP:  69; 6HR MAX TEMP:  72;

DOUBLE EAGLE   MOCLDY    63  57  82 N5        30.21R
MORIARTY ARPT    N/A     56  52  88 CALM      30.25S
CLINES CORNERS MOCLDY    57  52  83 E6        30.28R
6HR MIN TEMP:  57; 6HR MAX TEMP:  63;

BELEN          PTSUNNY   66  62  87 CALM      30.17R
6HR MIN TEMP:  66; 6HR MAX TEMP:  69;

SOCORRO        CLOUDY    68  62  80 NW5       30.13S
6HR MIN TEMP:  67; 6HR MAX TEMP:  70;


$$
NMZ524>526-539-540-031300-
SOUTHCENTRAL MOUNTAINS

CITY           SKY/WX    TMP DP  RH WIND       PRES   REMARKS
RUIDOSO        MOCLDY    57  54  88 W7        30.29R

$$
NMZ527>531-031300-
NORTHEAST HIGHLANDS/NORTHEAST PLAINS

CITY           SKY/WX    TMP DP  RH WIND       PRES   REMARKS
LAS VEGAS      MOCLDY    57  54  89 N7        30.30R
6HR MIN TEMP:  56; 6HR MAX TEMP:  58; 6HR PCP:  0.01;

RATON          CLOUDY    62  60  93 CALM      30.26R
6HR MIN TEMP:  60; 6HR MAX TEMP:  64;

CLAYTON        CLOUDY    66  61  84 W6        30.18R
6HR MIN TEMP:  63; 6HR MAX TEMP:  67;


$$
NMZ532>537-031300-
EASTCENTRAL PLAINS

CITY           SKY/WX    TMP DP  RH WIND       PRES   REMARKS
TUCUMCARI      LGT RAIN  66  64  93 NE9       30.14R
6HR MIN TEMP:  66; 6HR MAX TEMP:  70; 6HR PCP:  0.11;

CANNON AFB     CLOUDY    67  64  89 NE13      30.14R
6HR MIN TEMP:  67; 6HR MAX TEMP:  73; 6HR PCP: TRACE;

CLOVIS AIRPORT CLOUDY    66  63  88 N12         N/A

$$
NMZ028-029-538-031300-
SOUTHEAST PLAINS

CITY           SKY/WX    TMP DP  RH WIND       PRES   REMARKS
ROSWELL        PTCLDY    71  61  70 W6        30.05R
6HR MIN TEMP:  69; 6HR MAX TEMP:  77;

ARTESIA        MOCLDY    73  63  68 S5        30.06R
CARLSBAD       CLOUDY    73  63  70 CALM      30.03R
6HR MIN TEMP:  73; 6HR MAX TEMP:  81;

HOBBS          CLEAR     68  63  83 CALM      30.07S


$$


USA.gov is the U.S. government's official web portal to all federal, state and local government web resources and services.